Погода в Кедабеке

Азербайджан     40°34′28″N   45°48′27″E
темп.,
°C
ветер,
м/с
пор.,
м/с
влажн.,
%
обл.,
%
осадки,
мм/ч
давл.,
гПа
погр.,
м
15 мая, сб
сб1501:00+9ююз32720 0.0 101916
04:00+9ююз32740 0.0 101913
07:00+11ююз22740 0.0 101824
10:00+16ссв21660 0.0 1017748
13:00+18св32580 0.4 10161291
16:00+18всв32621 1.6 10151203
19:00+14всв23783 1.4 101693
22:00+10ююз22824 2.1 101812
16 мая, вс
вс1601:00+9ююз22817 0.0 101714
04:00+9ююз22784 0.0 101713
07:00+11ю22740 0.0 101635
10:00+15св32620 0.0 1015788
13:00+17св436014 0.1 10141137
16:00+16св326393 0.9 1013764
19:00+13св117526 1.5 101439
22:00+10ю128295 2.4 101511
17 мая, пн
пн1701:00+9ю32789 0.2 101515
04:00+10ююз226981 0.2 101412
07:00+12ю22652 0.0 101315
10:00+19ссв12470 0.0 1011572
13:00+22сз153423 0.0 10102181
16:00+20св334975 0.1 1009810
19:00+12юв228396 2.6 101344
22:00+11ю43692 2.7 101329
18 мая, вт
вт1801:00+11ю336521 0.0 101119
04:00+10ююз116154 0.0 100912
07:00+12ююз117311 0.4 101026
10:00+17с23530 0.6 10091056
13:00+17с436136 3.3 1010706
16:00+16ссв436319 6.7 1011500
19:00+13ссв2381100 3.1 1013106
22:00+9ююз228220 3.7 101612
19 мая, ср
ср1901:00+9ю22771 0.2 101612
04:00+8юз22740 0.2 101712
07:00+11ююз22750 0.0 101734
10:00+16с22550 0.0 1016975
13:00+18ссв33551 0.0 10161477
16:00+18св426027 0.0 10151281
19:00+15всв228029 0.0 1016378
22:00+11ю22880 0.0 101812